CAPE
0 0 0 0 0 0 0 0 0 0 0 0 0 0 0 0 0 0 0 10 476 539 527 379 361 344 315 309 369 421 468 498 561 795 1087 1259 1483 1685 2091 2112 2103 1903 1467 1332
0 0 0 0 0 0 0 0 0 0 0 0 0 0 0 0 0 0 24 153 556 658 593 514 483 420 395 372 375 440 600 656 893 1201 1434 1601 1811 2210 2135 1589 1367 1125 1303 1148
0 0 0 0 0 0 0 0 0 0 0 0 0 0 0 0 20 37 105 405 642 819 907 799 769 560 513 459 497 608 736 939 1185 1434 1721 2015 1993 1907 1785 1439 1383 1096 636 253
0 0 0 0 0 0 0 0 0 0 0 0 0 0 0 0 26 272 510 773 1022 1114 1222 1303 1063 933 861 1067 1013 1011 1152 1292 1652 1888 2024 2029 1985 1858 1603 1368 1066 422 57 0
0 0 0 0 0 0 0 0 0 0 0 0 0 0 0 0 0 11 257 645 1263 1522 1559 1635 1360 1332 1319 1231 1380 1427 1433 1578 1867 2081 2001 1909 1839 1648 1309 818 404 98 0 0
0 0 0 0 0 0 0 0 0 0 0 0 0 0 0 0 0 0 407 653 785 2140 1873 1855 1595 1438 1695 1736 1733 1740 1828 1994 2012 1970 1856 1716 1553 1197 737 544 158 0 0 1
0 0 0 0 0 0 0 0 0 0 0 0 0 0 0 0 0 0 165 1036 1193 2264 2274 1985 1820 1850 1980 1901 1969 2056 1905 1845 1743 1615 1500 1237 911 602 453 349 82 1 0 1
0 0 0 0 0 0 0 0 0 0 0 0 0 0 0 0 0 0 0 783 1535 1748 2281 2185 1786 1758 1961 2034 1858 1709 1603 1469 1163 943 662 448 446 335 286 153 8 0 0 1
0 0 0 0 0 0 0 0 0 0 0 0 0 0 0 0 0 0 0 284 1518 2057 1967 1986 1792 1734 1883 1595 1287 1298 1132 771 626 232 42 24 36 10 4 4 1 3 0 0
15 7 0 0 0 0 0 0 0 4 0 0 0 0 0 0 0 0 0 130 546 1822 2001 1869 1664 1394 1658 993 916 830 614 241 68 3 1 0 0 0 0 0 0 0 0 0
0 0 0 0 0 0 0 0 0 0 0 0 0 0 2 0 0 0 86 206 321 833 1369 1633 1196 1108 720 603 595 488 258 12 2 0 0 0 0 0 0 0 0 0 0 0
8 1 0 0 0 0 0 0 0 0 0 0 0 0 48 9 0 33 89 28 280 449 728 533 273 243 150 292 278 71 15 1 0 0 0 0 0 0 0 0 0 0 0 0
3 0 0 0 0 0 0 0 0 0 0 0 0 0 0 0 0 4 188 145 154 340 338 218 80 40 7 66 43 13 0 0 0 0 0 0 0 0 0 0 0 0 0 0
13 32 19 11 2 0 0 0 0 0 0 0 0 0 0 0 2 115 160 198 199 110 46 9 5 8 1 1 21 1 1 0 0 0 0 0 0 0 0 0 0 0 0 0
6 9 15 13 0 0 0 0 0 0 0 0 0 0 0 1 48 318 478 396 188 78 13 2 1 1 2 0 1 0 0 0 0 0 0 0 0 0 0 0 0 0 0 0
4 13 27 29 10 0 0 0 0 0 2 39 24 35 29 43 308 682 698 454 291 135 3 3 2 3 1 0 0 2 3 1 0 0 0 0 0 0 0 0 0 0 1 0
12 4 20 18 18 11 2 2 2 0 0 4 10 23 6 169 435 823 699 386 157 40 1 0 2 1 2 12 7 3 0 0 0 0 0 0 0 0 0 0 0 0 1 0
21 20 29 27 7 7 5 7 10 5 1 4 19 25 68 241 380 669 658 340 35 2 2 0 0 0 0 0 0 0 0 0 0 0 0 0 0 0 0 0 0 0 1 0
24 22 24 12 11 29 12 7 5 15 8 10 27 69 233 311 553 849 677 182 25 2 1 0 0 0 0 0 0 0 0 0 0 0 0 0 0 0 0 0 0 0 0 0
13 21 13 12 21 18 14 7 4 20 12 29 86 173 246 178 492 717 544 61 22 0 0 2 1 0 0 0 0 0 0 0 0 0 0 0 0 0 0 0 0 0 2 1
6 3 15 26 12 2 28 18 16 14 21 31 40 210 149 172 506 517 270 29 0 1 1 1 0 0 0 0 0 0 0 0 0 0 0 0 0 0 0 0 1 2 3 3
12 15 22 5 3 7 36 14 12 30 32 41 98 196 296 386 389 292 12 0 2 1 0 0 0 0 0 0 0 0 0 0 0 0 0 0 0 0 0 0 2 2 1 4
20 4 12 5 2 22 34 75 87 112 128 227 253 318 350 333 170 0 1 4 3 0 0 0 0 0 0 0 0 0 0 0 0 0 0 0 0 0 0 0 0 0 1 1
9 1 6 28 2 1 19 28 5 0 2 1 55 256 81 11 1 2 2 2 0 0 0 0 0 0 0 0 0 0 0 0 0 0 0 0 0 0 0 0 0 0 0 1
5 0 0 1 6 3 10 13 30 4 0 3 2 1 2 1 0 1 2 0 0 0 0 0 0 0 0 0 0 0 0 0 0 0 0 0 0 0 0 0 0 0 0 0
2 0 0 1 6 3 2 2 6 7 6 2 0 2 2 3 2 1 1 0 0 0 0 0 0 0 0 0 0 0 0 0 0 0 0 0 0 0 0 0 0 0 0 0
6 0 0 0 0 0 0 1 8 6 5 7 2 0 5 3 2 0 0 0 0 0 0 0 0 0 0 0 0 0 0 0 0 0 0 0 0 0 0 0 0 0 0 0
CIN
0 0 0 0 0 0 0 0 0 0 0 0 0 0 0 0 0 0 0 -112 -273 -291 -280 -309 -365 -349 -346 -312 -308 -288 -263 -223 -164 -176 -186 -192 -187 -182 -141 -97 -84 -98 -110 -108
0 0 0 0 0 0 0 0 0 0 0 0 0 0 0 0 0 0 -262 -250 -264 -314 -322 -284 -318 -320 -362 -377 -356 -377 -304 -228 -210 -211 -207 -200 -192 -167 -148 -138 -158 -162 -124 -126
0 0 0 0 0 0 0 0 0 0 0 0 0 0 0 -10 -147 -133 -392 -348 -318 -293 -285 -304 -292 -370 -341 -385 -432 -378 -349 -308 -256 -230 -206 -199 -204 -189 -167 -164 -158 -157 -214 -312
0 0 0 0 0 0 0 0 0 0 0 0 0 0 0 0 -372 -508 -511 -510 -450 -408 -368 -389 -460 -402 -414 -425 -409 -371 -338 -312 -282 -237 -212 -206 -187 -165 -156 -158 -159 -256 -443 0
0 0 0 0 0 0 0 0 0 0 0 0 0 0 0 0 0 -437 -528 -498 -454 -451 -443 -388 -449 -515 -454 -432 -418 -381 -338 -323 -281 -224 -200 -176 -145 -142 -160 -199 -256 -401 0 0
0 0 0 0 0 0 0 0 0 0 0 0 0 0 0 0 0 0 -501 -464 -496 -325 -380 -413 -383 -468 -391 -364 -365 -350 -338 -308 -280 -231 -191 -155 -141 -154 -207 -223 -327 -1 0 0
0 0 0 0 0 0 0 0 0 0 0 0 0 0 0 0 0 0 -464 -325 -345 -251 -251 -315 -383 -379 -322 -348 -297 -286 -330 -307 -291 -257 -217 -198 -203 -248 -252 -234 -359 0 0 0
0 0 0 0 0 0 0 0 0 0 0 0 0 0 0 0 0 0 0 -282 -195 -198 -179 -217 -304 -335 -292 -267 -282 -271 -292 -281 -302 -313 -323 -342 -288 -261 -254 -282 -104 0 0 0
0 0 0 0 0 0 0 0 0 0 0 0 0 0 0 0 0 0 0 -320 -80 -53 -118 -172 -205 -203 -196 -259 -270 -218 -217 -294 -316 -382 -457 -445 -411 -54 -34 -18 -1 0 0 0
-15 -14 0 0 0 0 0 0 0 -106 0 0 0 0 0 0 0 0 -68 -322 -224 -24 -21 -59 -117 -182 -116 -231 -207 -233 -259 -252 -363 0 0 0 0 0 0 0 0 0 0 0
0 0 0 0 0 0 0 0 0 0 0 0 0 0 -100 0 0 0 -325 -281 -236 -133 -51 -35 -107 -167 -262 -195 -140 -187 -403 -137 0 0 0 0 0 0 0 0 0 0 0 0
-1 -2 0 0 0 0 0 0 0 0 0 0 0 0 -157 -207 0 -117 -206 -346 -238 -203 -178 -241 -314 -330 -380 -276 -235 -259 -298 0 0 0 0 0 0 0 0 0 0 0 0 0
-2 0 0 0 0 0 0 0 0 0 0 0 0 0 0 -1 -6 -205 -138 -175 -208 -167 -201 -304 -433 -477 -563 -419 -347 -333 0 0 0 0 0 0 0 0 0 0 0 0 0 0
-21 -13 -8 -6 -4 0 0 0 0 0 0 0 0 0 0 0 -78 -89 -107 -131 -132 -182 -299 -309 -364 -483 0 0 -421 -78 0 0 0 0 0 0 0 0 0 0 0 0 0 0
-43 -42 -38 -41 -53 0 0 0 0 0 0 0 0 0 0 -67 -111 -49 -56 -76 -115 -166 -266 0 0 0 0 0 -99 0 0 0 0 0 0 0 0 0 0 0 0 0 0 0
-41 -35 -22 -12 -28 0 0 0 0 0 -37 -50 -48 -48 -54 -80 -55 -29 -22 -43 -67 -99 -16 0 0 0 0 0 0 0 0 0 0 0 0 0 0 0 0 0 0 0 0 0
0 -6 -1 -2 -4 -9 -4 -1 -15 0 0 -77 -59 -52 -61 -53 -31 -19 -22 -30 -45 -171 0 0 0 0 0 0 0 -1 0 0 0 0 0 0 0 0 0 0 0 0 0 0
0 -3 -3 0 -1 -5 -17 -23 -9 -15 -10 -76 -80 -66 -80 -45 -35 -19 -6 -21 -141 -18 0 0 0 0 0 0 0 0 0 0 0 0 0 0 0 0 0 0 0 0 0 0
-2 0 -1 -2 -3 0 -1 0 0 -18 -34 -57 -67 -64 -38 -46 -33 0 -1 -28 -73 -7 0 0 0 0 0 0 0 0 0 0 0 0 0 0 0 0 0 0 0 0 0 0
0 -17 -8 -1 0 -6 0 0 -3 -8 -31 -30 -46 -45 -40 -28 -26 -8 -1 -28 -65 0 0 0 0 0 0 0 0 0 0 0 0 0 0 0 0 0 0 0 0 0 0 0
-3 -4 -1 0 0 -1 -2 -2 -10 -7 -21 -33 -37 -33 -22 -16 -22 -1 0 -5 0 0 0 0 0 0 0 0 0 0 0 0 0 0 0 0 0 0 0 0 0 0 0 0
-4 -2 0 0 0 -21 -1 -13 -20 -20 -31 -40 -46 -45 -29 -18 -15 -1 0 0 0 0 0 0 0 0 0 0 0 0 0 0 0 0 0 0 0 0 0 0 0 0 0 0
-1 -9 -6 0 0 -4 -7 -7 -5 -13 -31 -29 -26 -17 -12 -2 -1 0 0 0 0 0 0 0 0 0 0 0 0 0 0 0 0 0 0 0 0 0 0 0 -1 -1 0 0
-7 -6 -4 -3 0 -6 -3 -10 -58 -3 -11 0 -41 -5 -25 -49 -6 0 0 0 0 0 0 0 0 0 0 0 0 0 0 0 0 0 0 0 0 0 0 0 0 0 0 0
-18 0 0 -23 -16 -20 -18 -24 -13 -11 -2 0 0 0 0 0 0 0 0 0 0 0 0 0 0 0 0 0 0 0 0 0 0 0 0 0 0 0 0 0 0 0 0 0
-14 0 0 0 -30 -49 -44 -45 -9 -15 -7 -18 -4 0 0 0 0 0 0 0 0 0 0 0 0 0 0 0 0 0 0 0 0 0 0 0 0 0 0 0 0 0 0 0
-19 0 0 0 -16 -18 -6 -10 -49 -39 -30 -8 -13 -18 -40 -14 0 0 0 0 0 0 0 0 0 0 0 0 0 0 0 0 0 0 0 0 0 0 0 0 0 0 0 0
Wind_Speed
29 29 30 31 30 31 31 35 39 43 43 39 35 36 34 34 34 33 29 21 10 9 9 7 7 5 7 10 12 16 16 15 16 12 8 4 4 3 0 2 7 10 13 15
34 32 32 37 37 37 36 37 38 42 49 34 37 34 34 34 34 33 32 30 21 14 10 9 7 7 4 5 8 8 13 17 9 6 4 3 3 3 4 8 14 16 17 21
41 34 39 45 37 39 39 35 36 41 38 37 37 35 34 33 32 34 33 32 28 18 13 11 9 7 3 3 2 2 2 4 5 6 7 7 6 5 6 10 14 16 19 22
39 37 48 40 32 32 35 33 32 33 34 34 35 32 24 28 31 31 32 32 32 27 20 17 17 12 9 8 7 7 6 5 6 7 8 6 5 6 8 10 11 14 17 18
36 37 42 37 29 30 33 37 28 29 30 33 34 23 25 29 30 31 31 33 33 30 24 19 14 14 12 10 9 10 9 8 8 8 7 6 6 6 7 8 11 13 14 15
29 36 41 30 23 27 30 46 28 30 32 32 32 33 30 34 34 34 34 33 32 29 26 23 17 13 16 15 13 10 11 9 8 7 6 5 4 4 6 8 10 12 13 15
31 36 35 29 29 26 38 37 30 30 32 33 34 33 36 37 35 34 34 33 30 27 29 27 22 18 16 15 14 12 10 9 8 7 5 4 5 5 6 7 8 10 11 14
27 33 39 24 23 30 32 32 33 33 32 34 36 36 38 38 38 38 37 34 31 30 29 28 24 21 21 18 15 12 9 9 9 8 7 6 6 7 7 6 7 9 11 14
25 25 20 23 26 30 31 32 32 32 33 37 39 38 38 40 40 40 38 37 35 34 31 27 26 25 23 21 15 11 11 11 9 9 8 8 8 9 10 10 9 10 12 14
29 26 31 35 35 37 31 34 33 32 34 35 39 38 39 39 39 39 38 38 37 36 34 31 25 24 24 19 14 12 11 14 11 10 9 9 8 10 11 11 11 11 13 15
33 35 41 41 34 36 42 41 39 35 36 38 39 40 39 40 41 41 40 38 36 38 38 34 27 23 21 19 15 15 12 14 11 9 9 10 11 12 12 12 13 12 12 15
39 37 38 39 39 40 43 42 41 44 45 42 37 38 38 39 38 39 40 40 40 39 35 33 28 24 21 19 16 13 11 10 8 9 7 9 10 11 12 11 12 14 15 16
38 35 39 43 42 39 39 43 43 42 41 43 38 37 40 40 39 39 38 38 38 36 30 28 25 22 19 19 17 15 12 10 7 7 12 10 13 14 13 14 13 16 18 18
32 34 35 34 32 36 38 39 40 40 41 39 40 38 37 38 38 38 37 35 31 30 29 27 24 22 18 17 16 14 12 10 8 8 10 9 14 16 16 15 15 15 20 20
33 33 31 38 42 42 39 37 39 39 38 36 36 35 35 37 38 37 34 31 26 25 23 23 23 21 19 17 16 15 14 12 12 6 12 4 4 6 11 14 16 18 21 21
38 37 38 38 41 42 40 39 40 40 37 34 35 33 32 32 31 30 27 26 24 23 21 19 18 19 18 18 16 14 13 10 7 7 7 5 3 3 6 15 16 18 21 21
40 38 37 38 41 43 43 42 43 42 39 37 36 33 33 31 29 25 21 19 20 18 15 13 14 13 15 11 11 12 10 9 8 7 7 8 7 5 8 13 15 16 18 20
39 33 28 30 37 44 44 43 42 40 39 39 35 32 29 28 29 23 19 14 15 15 13 11 7 8 10 11 12 11 10 8 7 5 4 4 5 7 8 11 13 16 18 17
38 39 32 34 37 37 38 40 42 42 40 34 33 31 29 29 27 23 18 15 13 16 15 12 9 7 7 8 9 8 7 6 5 4 4 4 7 9 11 12 14 15 15 15
33 29 38 38 38 29 31 20 29 34 32 29 27 28 31 28 26 24 18 14 12 15 15 13 13 16 14 5 4 5 3 3 6 1 2 5 7 8 12 12 11 11 13 14
21 19 16 25 40 38 33 16 9 12 25 27 28 31 31 25 24 23 20 18 14 5 9 12 10 10 8 7 5 3 2 1 1 1 2 4 6 9 12 11 12 13 14 16
26 20 21 23 21 20 5 11 7 21 26 29 29 28 27 25 25 23 13 8 9 7 8 4 11 11 9 6 3 3 4 4 5 4 5 6 7 8 9 10 11 12 13 15
28 33 11 10 9 5 19 16 14 17 22 25 26 26 23 23 15 11 13 6 3 10 10 8 8 8 7 5 3 3 2 1 4 4 5 6 6 6 7 7 9 10 11 13
21 14 15 24 13 21 28 24 21 20 20 19 18 17 9 11 13 10 7 15 14 12 8 10 9 10 6 5 5 5 5 6 6 7 7 7 7 7 7 8 9 10 12 13
26 17 19 22 20 21 24 22 24 19 17 22 19 15 14 12 7 4 11 12 15 11 9 11 15 13 9 9 7 7 7 7 6 7 7 8 8 8 9 9 10 11 12 14
22 23 19 17 6 16 20 21 19 18 20 22 18 19 9 10 12 14 14 14 12 13 13 13 9 7 6 5 4 5 6 7 6 8 8 9 9 9 10 11 11 12 13 14
24 23 23 21 17 11 12 20 25 22 22 24 26 11 10 14 11 11 11 9 9 9 14 13 8 7 6 4 3 4 4 6 7 8 9 10 10 11 11 12 12 13 14 15
Wind_Direction
290 291 291 290 291 292 290 289 286 286 285 288 295 297 294 293 291 288 293 304 272 225 207 195 174 174 173 175 177 184 186 182 182 177 180 199 201 191 301 15 357 3 1 2
289 291 290 287 286 287 288 289 289 289 282 295 292 294 291 295 293 291 287 289 287 271 255 236 218 176 175 170 169 172 184 194 206 242 276 298 310 301 323 332 325 339 346 348
287 294 291 284 287 287 287 288 288 286 290 295 291 291 292 293 297 291 290 285 283 276 267 261 248 252 211 264 257 217 223 266 270 280 290 299 312 311 315 320 328 336 341 346
290 293 284 293 294 292 289 290 290 289 292 294 294 292 294 300 297 299 295 287 280 277 274 276 273 263 270 279 283 288 294 296 303 306 304 304 305 308 315 325 334 338 344 352
288 287 290 292 296 293 292 291 294 296 296 294 296 289 285 302 302 296 299 293 283 277 273 274 274 267 267 269 277 284 288 300 307 311 314 311 310 315 320 327 334 338 347 354
292 289 290 303 304 304 299 286 295 293 294 296 296 283 282 298 298 297 296 296 290 282 275 272 268 263 262 267 267 276 285 294 306 319 321 321 330 331 332 333 337 344 348 353
289 289 293 301 304 307 289 291 302 300 297 294 290 289 290 294 295 297 297 297 298 289 279 273 268 261 257 260 265 273 280 292 300 314 326 338 345 343 340 340 344 345 347 350
293 289 289 313 307 296 301 304 301 299 298 295 293 293 291 291 292 294 294 294 295 293 286 278 271 259 257 258 264 267 275 285 298 303 309 321 329 330 333 338 338 339 341 343
292 297 309 313 309 310 310 304 302 301 300 296 292 292 292 289 290 291 292 291 290 285 287 287 273 263 257 257 257 266 278 285 290 299 304 309 317 321 321 322 324 328 330 335
296 297 296 298 300 301 304 304 305 303 302 302 294 293 290 290 291 290 290 288 287 283 282 282 278 265 261 253 247 248 272 281 285 292 303 313 319 317 321 321 322 324 328 333
294 296 294 294 300 300 295 295 296 299 299 298 296 292 292 289 289 288 287 287 287 280 276 278 278 268 256 250 243 255 253 253 269 280 301 310 318 317 317 326 323 327 335 339
294 299 298 298 298 298 294 292 290 289 288 291 296 293 291 290 291 289 287 286 282 280 279 275 275 270 256 242 234 233 235 235 247 276 288 304 312 318 337 337 339 337 334 335
299 300 296 295 297 297 294 290 288 289 289 286 290 292 289 289 290 290 289 288 283 279 278 272 270 268 258 240 232 227 230 237 248 273 281 302 293 291 299 306 317 318 322 329
307 303 301 303 303 299 297 295 292 291 289 285 284 288 289 287 288 287 287 289 290 280 273 267 263 258 248 232 220 224 230 236 254 274 296 300 277 280 283 295 303 314 306 316
310 308 308 302 298 292 295 297 293 290 292 288 284 288 289 287 286 285 285 288 293 287 275 265 259 249 238 226 223 225 224 237 253 261 276 261 211 268 286 298 300 306 306 307
307 309 307 305 300 292 292 290 284 284 287 291 287 288 289 291 292 291 289 288 288 285 277 266 252 244 237 231 235 237 247 245 254 266 261 266 189 228 262 295 302 303 299 308
308 309 310 310 303 290 286 284 279 277 280 280 280 285 287 292 291 293 295 296 291 283 276 262 252 240 234 226 227 239 246 249 250 258 264 269 268 263 282 285 292 298 300 306
307 316 322 321 313 291 282 280 280 277 277 276 282 286 291 294 291 293 295 298 291 281 273 254 230 226 231 236 244 246 246 250 261 255 268 277 269 280 292 288 292 292 297 309
310 300 324 277 275 267 260 263 263 264 270 280 281 282 286 287 291 288 289 288 276 269 259 252 232 216 212 229 236 243 243 247 257 270 290 272 275 277 282 287 290 295 305 315
294 281 304 287 283 264 253 290 239 277 277 286 284 280 277 283 285 282 283 283 263 273 242 240 228 236 237 198 210 139 189 241 255 350 323 280 277 284 279 288 299 308 313 322
275 276 293 285 305 303 312 312 297 295 279 280 274 267 273 279 283 278 283 275 267 255 219 218 216 212 210 173 187 147 140 235 296 355 39 312 288 283 280 292 304 313 318 324
302 294 300 304 299 294 34 52 50 267 255 259 268 272 273 280 275 277 284 267 269 206 157 182 207 197 190 176 198 213 232 255 274 309 333 318 308 304 307 312 316 322 331 338
318 334 301 307 304 135 20 345 318 288 271 261 262 268 282 279 282 281 265 271 124 179 170 166 165 151 174 193 171 193 210 289 291 331 350 353 2 2 358 359 357 349 346 347
311 305 317 335 337 5 28 16 5 354 347 332 302 296 320 304 287 275 107 116 123 170 172 134 141 126 135 134 107 92 70 55 39 28 22 12 6 4 7 8 360 355 350 350
331 319 328 337 339 349 1 356 8 347 337 347 335 320 292 272 63 98 149 137 127 166 157 129 117 114 107 100 90 76 63 50 31 24 12 17 10 349 347 349 355 345 353 358
325 337 333 331 323 331 343 346 346 348 348 357 359 7 31 54 77 121 120 135 171 117 116 121 127 122 115 105 88 67 50 43 26 13 9 2 2 350 339 336 343 354 356 359
335 336 338 338 334 328 330 347 4 358 0 15 31 7 37 79 128 130 154 154 128 118 110 111 116 108 98 88 59 31 8 16 16 8 354 343 354 358 349 346 347 356 0 358